Terug naar catalogus

SL-19 R/B

ActiefUNKNOWN
NORAD 23440·ROCKET BODY·🇷🇺 Russia

Gelanceerd Dec 26, 1994 vanaf Baikonur Cosmodrome

Loading…

Volgende Passages (komende 24 uur)

TLE

VersSource: Space-Track

Epoch: Sep 14, 2026, 04:15 UTC

1 23440U 94085B   26257.17720567 -.00000035  00000-0  22095-3 0  9996
2 23440  64.8332 184.8333 0184415 325.9333 182.9092 11.27134433305640

Volg SL-19 R/B in realtime met AllMySat

Download on the App Store